Weather History for KYIP - July, 2013

Change the Weather History Date:

Monday, July 8, 2013

  Actual Average Record
Temperature  
Mean Temperature 78 °F -  
Max Temperature 86 °F 85 °F 99 °F (1988)
Min Temperature 70 °F 64 °F 50 °F (2000)
Cooling Degree Days 13    
Growing Degree Days 28 (Base 50)    
Moisture  
Dew Point 69 °F    
Average Humidity 78    
Maximum Humidity 84    
Minimum Humidity 63    
Precipitation  
Precipitation 0.48 in - - ()
Sea Level Pressure  
Sea Level Pressure 30.01 in    
Wind  
Wind Speed 6 mph (South)    
Max Wind Speed 12 mph    
Max Gust Speed 16 mph    
Visibility 9 miles    
Events Rain    
Averages and records for this station are not official NWS values.
T = Trace of Precipitation, MM = Missing Value Source: NWS Daily Summary

Daily Weather History Graph

Daily Weather History Graph

Search for Another Location

Airport or City:

Trip Planner

Search our weather history database for the weather conditions in past years. The results will help you decide how hot, cold, wet, or windy it might be!

Date:

Astronomy

Jul. 08, 2013 Rise Set
Actual Time 6:05 AM EDT 9:12 PM EDT
Civil Twilight 5:31 AM EDT 9:46 PM EDT
Nautical Twilight 4:48 AM EDT 10:29 PM EDT
Astronomical Twilight 3:56 AM EDT 11:21 PM EDT
Moon 6:35 AM EDT (7/8) 9:11 PM EDT (7/8)
Length of Visible Light 16h 14m
Length of Day
15h 06m
New Moon, 0% of the Moon is Illuminated
Jul 8
New Moon
Jul 15
First Quarter
Jul 22
Full
Jul 29
Last Quarter
Aug 6
New

Hourly Weather History & Observations

Time (EDT) Temp. Heat Index Dew Point Humidity Pressure Visibility Wind Dir Wind Speed Gust Speed Precip Events Conditions
12:53 AM 72.0 °F - 64.9 °F 78% 30.04 in 10.0 mi SW 5.8 mph - N/A   Partly Cloudy
1:53 AM 71.1 °F - 66.0 °F 84% 30.02 in 10.0 mi WSW 8.1 mph - N/A   Clear
2:53 AM 71.1 °F - 66.0 °F 84% 30.02 in 10.0 mi South 5.8 mph - N/A   Clear
3:53 AM 71.1 °F - 64.0 °F 78% 30.02 in 10.0 mi WSW 6.9 mph - N/A   Mostly Cloudy
4:53 AM 71.1 °F - 64.0 °F 78% 30.02 in 10.0 mi SW 4.6 mph - N/A   Mostly Cloudy
5:53 AM 70.0 °F - 64.0 °F 81% 30.02 in 10.0 mi SSW 4.6 mph - N/A   Clear
6:53 AM 71.1 °F - 66.0 °F 84% 30.03 in 10.0 mi SSW 6.9 mph - N/A   Clear
7:53 AM 75.0 °F - 66.9 °F 76% 30.04 in 10.0 mi SW 4.6 mph - N/A   Partly Cloudy
8:53 AM 75.0 °F - 68.0 °F 79% 30.03 in 10.0 mi SSW 4.6 mph - 0.00 in Rain Light Rain
9:53 AM 78.1 °F - 69.1 °F 74% 30.04 in 10.0 mi South 5.8 mph - 0.00 in   Clear
10:53 AM 79.0 °F - 69.1 °F 72% 30.04 in 10.0 mi South 8.1 mph - N/A   Clear
11:53 AM 82.0 °F 85.9 °F 70.0 °F 67% 30.03 in 10.0 mi SSW 11.5 mph - N/A   Clear
12:53 PM 84.0 °F 89.6 °F 72.0 °F 67% 30.02 in 10.0 mi South 10.4 mph - N/A   Clear
1:53 PM 86.0 °F 92.2 °F 72.0 °F 63% 30.00 in 10.0 mi SW 11.5 mph - 0.00 in Rain Light Rain
2:53 PM 84.0 °F 90.2 °F 73.0 °F 69% 29.99 in 10.0 mi South 8.1 mph - 0.00 in   Mostly Cloudy
3:48 PM 78.8 °F - 71.6 °F 78% 30.01 in 10.0 mi ENE 5.8 mph - 0.05 in   Mostly Cloudy
3:53 PM 80.1 °F 83.8 °F 72.0 °F 76% 29.99 in 10.0 mi NE 9.2 mph - 0.05 in   Mostly Cloudy
4:24 PM 75.2 °F - 69.8 °F 83% 30.02 in 2.5 mi Variable 3.5 mph 16.1 mph 0.25 in Rain Heavy Rain
4:26 PM 75.2 °F - 69.8 °F 83% 30.02 in 1.8 mi Calm Calm - 0.36 in Rain Heavy Rain
4:36 PM 75.2 °F - 69.8 °F 83% 30.01 in 6.0 mi East 4.6 mph - 0.38 in Rain Light Rain
4:53 PM 77.0 °F - 70.0 °F 79% 30.00 in 8.0 mi Variable 3.5 mph - 0.41 in Rain Light Rain
5:53 PM 78.1 °F - 70.0 °F 76% 29.99 in 10.0 mi Calm Calm - 0.02 in Rain Light Rain
6:53 PM 77.0 °F - 71.1 °F 82% 29.99 in 10.0 mi SE 5.8 mph - N/A   Overcast
7:53 PM 77.0 °F - 71.1 °F 82% 29.99 in 10.0 mi South 6.9 mph - N/A   Overcast
8:53 PM 77.0 °F - 71.1 °F 82% 29.99 in 10.0 mi South 5.8 mph - N/A   Overcast
9:53 PM 75.9 °F - 70.0 °F 82% 29.99 in 10.0 mi South 4.6 mph - 0.00 in   Overcast
10:53 PM 75.9 °F - 70.0 °F 82% 29.99 in 10.0 mi South 6.9 mph - N/A   Overcast
11:53 PM 75.9 °F - 70.0 °F 82% 29.99 in 10.0 mi South 6.9 mph - N/A   Overcast